Location: Bavegemberg
(50.9500°N, 3.8833°E)
Time: 21:09:50
(UTC+00:00)

Cosmos 1346 Rocket - Pass Details

Date: 23 August 2024
Orbit: 503 x 516 km, 81.2° (Epoch: 16 September)

Event Time Altitude Azimuth Distance (km) Brightness Sun altitude
Exits shadow 23:51:30 17° 59° (ENE) 1,358 5.1 -28.0°
Drops below altitude 10° 23:52:52 10° 40° (NE) 1,730 6.0 -28.0°
Sets 23:55:22 0° 25° (NNE) 2,624 7.3 -28.0°
